KA3WVU Weather Reports


Display with metric or nautical units.
time (UTC)temp
F
wind
direction
speed
MPH
gust
MPH
rain 1hr
in
rain 24hr
in
rain mn
in
humidity
%
barometer
mb
20260504175617 68 149 5.0 7.0 0.00 0.00 0.00 40 1009.3
20260504175114 68 113 4.0 6.0 0.00 0.00 0.00 40 1009.1
20260504174612 68 197 4.0 7.0 0.00 0.00 0.00 43 1009.1
20260504174108 68 219 4.0 4.0 0.00 0.00 0.00 41 1009.3
20260504173605 67 312 3.0 4.0 0.00 0.00 0.00 41 1009.5
20260504173103 68 292 3.0 3.0 0.00 0.00 0.00 42 1009.5
20260504172559 66 119 6.0 7.0 0.00 0.00 0.00 42 1009.4
20260504172056 65 151 6.0 7.0 0.00 0.00 0.00 43 1009.4
20260504171552 66 252 4.0 7.0 0.00 0.00 0.00 42 1009.5
20260504171049 65 208 3.0 4.0 0.00 0.00 0.00 43 1009.5
20260504170545 65 267 2.0 3.0 0.00 0.00 0.00 44 1009.6
20260504150929 59 227 3.0 3.0 0.00 0.00 0.00 49 1010.5
20260504150426 60 203 2.0 3.0 0.00 0.00 0.00 48 1010.5
20260504140852 55 194 1.0 2.0 0.00 0.00 0.00 52 1010.8
20260504140348 55 197 2.0 4.0 0.00 0.00 0.00 53 1010.9
20260504130817 50 180 1.0 2.0 0.00 0.00 0.00 58 1010.9
20260504130313 49 179 2.0 2.0 0.00 0.00 0.00 57 1011.1
20260504120237 46 209 2.0 2.0 0.00 0.00 0.00 59 1011.2
20260504110704 43 201 1.0 1.0 0.00 0.00 0.00 63 1010.9
20260504110201 43 160 2.0 2.0 0.00 0.00 0.00 65 1011.0
20260504100125 41 167 1.0 1.0 0.00 0.00 0.00 66 1011.3
20260504081518 42 209 1.0 1.0 0.00 0.00 0.00 65 1011.5
20260504081013 41 208 0.0 0.0 0.00 0.00 0.00 65 1011.5
20260504080510 41 209 1.0 1.0 0.00 0.00 0.00 65 1011.4
20260504050328 42 189 1.0 1.0 0.00 0.00 0.00 61 1012.7
20260504045825 42 193 0.0 1.0 0.00 0.00 0.00 61 1012.8
20260504045320 42 179 0.0 1.0 0.00 0.00 0.00 60 1012.7
20260504044817 43 196 0.0 1.0 0.00 0.00 0.00 60 1012.8
20260504044315 42 189 1.0 1.0 0.00 0.00 0.00 61 1012.6
20260504043812 42 212 0.0 1.0 0.00 0.00 0.00 60 1012.7
20260504043309 43 203 1.0 1.0 0.00 0.00 0.00 60 1012.8
20260504042807 43 211 1.0 1.0 0.00 0.00 0.00 60 1012.7
20260504042304 43 224 1.0 2.0 0.00 0.00 0.00 59 1012.7
20260504041759 43 212 0.0 0.0 0.00 0.00 0.00 60 1012.7
20260504041255 43 212 1.0 1.0 0.00 0.00 0.00 59 1012.5
20260504040751 43 209 0.0 1.0 0.00 0.00 0.00 59 1012.7
20260504040249 43 200 0.0 0.0 0.00 0.00 0.00 60 1012.9
20260504035745 43 211 0.0 0.0 0.00 0.00 0.00 59 1012.7
20260504035242 43 221 1.0 1.0 0.00 0.00 0.00 59 1012.7
20260504034740 43 257 2.0 3.0 0.00 0.00 0.00 59 1012.7
20260504034237 43 209 0.0 1.0 0.00 0.00 0.00 59 1012.7
20260504033735 43 199 0.0 1.0 0.00 0.00 0.00 59 1012.8
20260504033232 44 221 3.0 3.0 0.00 0.00 0.00 58 1012.7
20260504032729 44 232 1.0 2.0 0.00 0.00 0.00 58 1012.7
20260504032226 44 230 1.0 2.0 0.00 0.00 0.00 57 1012.6
20260504031722 44 219 1.0 1.0 0.00 0.00 0.00 58 1012.8
20260504031220 44 219 1.0 1.0 0.00 0.00 0.00 58 1012.7
20260504030715 45 198 1.0 2.0 0.00 0.00 0.00 57 1012.6
20260504030213 44 227 2.0 3.0 0.00 0.00 0.00 58 1012.8
20260504025709 44 228 1.0 1.0 0.00 0.00 0.00 59 1012.7
20260504025206 44 214 1.0 2.0 0.00 0.00 0.00 59 1012.7
20260504024704 44 208 0.0 1.0 0.00 0.00 0.00 58 1012.8
20260504024200 44 203 1.0 1.0 0.00 0.00 0.00 58 1012.7
20260504023656 45 215 0.0 1.0 0.00 0.00 0.00 56 1012.8
20260504023152 44 216 2.0 2.0 0.00 0.00 0.00 58 1012.7
20260504022649 44 194 1.0 2.0 0.00 0.00 0.00 57 1012.9
20260504022144 44 203 1.0 2.0 0.00 0.00 0.00 57 1012.8
20260504021643 44 201 2.0 2.0 0.00 0.00 0.00 57 1012.9
20260504021139 45 174 0.0 2.0 0.00 0.00 0.00 58 1013.0
20260504020637 45 220 2.0 2.0 0.00 0.00 0.00 55 1012.9
20260504020132 45 205 1.0 1.0 0.00 0.00 0.00 57 1012.9
20260504015629 44 237 1.0 1.0 0.00 0.00 0.00 57 1012.8
20260504015125 44 231 1.0 1.0 0.00 0.00 0.00 56 1012.7
20260504014621 45 215 1.0 2.0 0.00 0.00 0.00 57 1012.8
20260504014119 45 207 0.0 0.0 0.00 0.00 0.00 56 1012.7
20260504013616 45 219 1.0 2.0 0.00 0.00 0.00 56 1012.8
20260504013113 45 211 0.0 0.0 0.00 0.00 0.00 56 1012.7
20260504012610 45 211 0.0 1.0 0.00 0.00 0.00 55 1012.5
20260504012108 45 210 1.0 1.0 0.00 0.00 0.00 56 1012.5
20260504011605 45 208 1.0 1.0 0.00 0.00 0.00 54 1012.6
20260504011101 45 182 1.0 1.0 0.00 0.00 0.00 55 1012.4
20260504010556 45 186 2.0 2.0 0.00 0.00 0.00 53 1012.4
20260504010053 46 206 1.0 2.0 0.00 0.00 0.00 53 1012.7
20260504005550 45 213 0.0 1.0 0.00 0.00 0.00 53 1012.6
20260504005047 46 201 1.0 1.0 0.00 0.00 0.00 53 1012.5
20260504004545 46 208 1.0 1.0 0.00 0.00 0.00 52 1012.4
20260504004042 46 188 1.0 2.0 0.00 0.00 0.00 51 1012.1
20260504003538 47 218 1.0 1.0 0.00 0.00 0.00 51 1012.5
20260504003035 47 231 2.0 2.0 0.00 0.00 0.00 50 1012.5
20260504002531 47 222 1.0 1.0 0.00 0.00 0.00 51 1012.4
20260504002029 47 209 0.0 1.0 0.00 0.00 0.00 51 1012.4
20260504001527 47 199 1.0 2.0 0.00 0.00 0.00 50 1012.3
20260504001022 47 217 1.0 1.0 0.00 0.00 0.00 50 1012.5
20260504000520 48 210 1.0 1.0 0.00 0.00 0.00 50 1012.4
20260504000017 48 250 1.0 1.0 0.00 0.00 0.00 49 1012.1
20260503235515 48 216 1.0 2.0 0.00 0.00 0.00 48 1012.3
20260503235011 49 215 1.0 1.0 0.00 0.00 0.00 48 1012.3
20260503234509 49 236 2.0 3.0 0.00 0.00 0.00 47 1012.0
20260503234007 49 255 4.0 6.0 0.00 0.00 0.00 47 1012.4
20260503233503 49 203 1.0 1.0 0.00 0.00 0.00 49 1012.5
20260503232959 49 205 2.0 2.0 0.00 0.00 0.00 47 1012.5
20260503232456 50 179 2.0 3.0 0.00 0.00 0.00 46 1012.4
20260503231954 50 207 2.0 2.0 0.00 0.00 0.00 46 1012.5
20260503231451 50 330 2.0 2.0 0.00 0.00 0.00 47 1012.5
20260503230948 50 194 1.0 2.0 0.00 0.00 0.00 45 1012.4
20260503230444 51 288 4.0 4.0 0.00 0.00 0.00 45 1012.1
20260503225942 51 296 3.0 6.0 0.00 0.00 0.00 45 1012.3
20260503225439 51 248 3.0 4.0 0.00 0.00 0.00 44 1012.3
20260503224934 51 246 1.0 1.0 0.00 0.00 0.00 45 1012.3
20260503224431 51 228 2.0 3.0 0.00 0.00 0.00 45 1012.3
20260503223929 51 299 4.0 4.0 0.00 0.00 0.00 44 1012.5
20260503223427 51 308 4.0 8.0 0.00 0.00 0.00 45 1012.4
20260503222922 51 211 2.0 3.0 0.00 0.00 0.00 44 1012.4
20260503222421 51 216 3.0 3.0 0.00 0.00 0.00 44 1012.5
20260503221919 52 164 2.0 2.0 0.00 0.00 0.00 43 1012.3
20260503221417 53 223 1.0 2.0 0.00 0.00 0.00 44 1012.3
20260503220913 53 244 3.0 3.0 0.00 0.00 0.00 43 1012.1
20260503220410 51 222 2.0 3.0 0.00 0.00 0.00 42 1012.4
20260503215907 51 287 3.0 4.0 0.00 0.00 0.00 43 1012.4
20260503215404 52 200 1.0 1.0 0.00 0.00 0.00 42 1012.1
20260503214901 53 222 2.0 3.0 0.00 0.00 0.00 43 1012.5
20260503214358 52 234 1.0 1.0 0.00 0.00 0.00 45 1012.3
20260503213856 52 172 2.0 3.0 0.00 0.00 0.00 43 1012.3
20260503213354 51 258 2.0 2.0 0.00 0.00 0.00 44 1012.3
20260503212850 52 181 2.0 3.0 0.00 0.00 0.00 43 1012.1
20260503212348 52 79 2.0 2.0 0.00 0.00 0.00 44 1012.3
20260503211845 51 174 2.0 2.0 0.00 0.00 0.00 46 1012.1
20260503211342 51 245 3.0 4.0 0.00 0.00 0.00 43 1011.9
20260503210837 51 113 4.0 4.0 0.00 0.00 0.00 44 1012.1
20260503210334 52 186 5.0 6.0 0.00 0.00 0.00 42 1012.1
20260503205829 53 226 2.0 3.0 0.00 0.00 0.00 41 1012.1
20260503205326 51 229 3.0 4.0 0.00 0.00 0.00 43 1012.3
20260503204822 53 318 4.0 6.0 0.00 0.00 0.00 43 1012.3
20260503204320 51 228 3.0 4.0 0.00 0.00 0.00 44 1012.3
20260503203817 52 220 3.0 3.0 0.00 0.00 0.00 42 1012.1
20260503203315 51 233 2.0 2.0 0.00 0.00 0.00 43 1012.3
20260503202811 50 277 3.0 4.0 0.00 0.00 0.00 44 1012.3
20260503202309 50 242 4.0 4.0 0.00 0.00 0.00 44 1012.5
20260503201807 51 256 2.0 2.0 0.00 0.00 0.00 45 1012.6
20260503201304 50 265 4.0 6.0 0.00 0.00 0.00 43 1012.8
20260503200801 51 213 4.0 4.0 0.00 0.00 0.00 43 1012.8
20260503200257 51 243 4.0 4.0 0.00 0.00 0.00 44 1012.8
20260503195755 52 250 2.0 3.0 0.00 0.00 0.00 44 1012.6
20260503195251 51 334 4.0 6.0 0.00 0.00 0.00 45 1012.7
20260503194749 52 95 2.0 3.0 0.00 0.00 0.00 42 1012.8
20260503194244 51 218 5.0 7.0 0.00 0.00 0.00 43 1012.8
20260503193741 50 316 5.0 7.0 0.00 0.00 0.00 44 1013.0
20260503193237 50 200 4.0 6.0 0.00 0.00 0.00 43 1012.9
20260503192733 51 224 5.0 7.0 0.00 0.00 0.00 44 1013.0
20260503192228 52 305 3.0 4.0 0.00 0.00 0.00 43 1013.0
20260503191725 52 250 4.0 4.0 0.00 0.00 0.00 44 1013.0
20260503191222 50 310 8.0 9.0 0.00 0.00 0.00 43 1013.2
20260503190719 51 289 4.0 6.0 0.00 0.00 0.00 45 1013.1
20260503190215 51 210 3.0 3.0 0.00 0.00 0.00 42 1013.1
20260503185713 51 255 2.0 2.0 0.00 0.00 0.00 44 1013.3
20260503185208 50 179 7.0 10.0 0.00 0.00 0.00 43 1013.4
20260503184703 51 245 1.0 1.0 0.00 0.00 0.00 45 1013.4
20260503184200 51 166 4.0 4.0 0.00 0.00 0.00 41 1013.3
20260503183656 49 249 3.0 4.0 0.00 0.00 0.00 45 1013.6
20260503183153 50 302 4.0 4.0 0.00 0.00 0.00 44 1013.9
20260503182651 51 270 1.0 2.0 0.00 0.00 0.00 43 1013.4
20260503182150 51 230 4.0 6.0 0.00 0.00 0.00 44 1013.8
20260503181646 51 232 3.0 6.0 0.00 0.00 0.00 42 1013.6
20260503181143 51 39 3.0 4.0 0.00 0.00 0.00 42 1013.5
20260503180640 52 242 3.0 4.0 0.00 0.00 0.00 41 1013.4
20260503180138 51 330 5.0 7.0 0.00 0.00 0.00 42 1013.8